Location: Unspecified
(41.4057°N, 2.1753°E)
Time: 08:27:02
(UTC+02:00)

ISS - Visible Passes

Search period start: 05 August 2015 00:00
Search period end: 15 August 2015 00:00
Orbit: 401 x 403 km, 51.6° (Epoch: 04 August)

Date Brightness Start Highest point End Pass type
(mag) Time Alt. Az. Time Alt. Az. Time Alt. Az.
05 Aug -0.2 00:09:30 10° NW 00:11:16 14° N 00:12:45 11° NNE visible
05 Aug -1.7 21:37:44 10° W 21:40:48 37° NNW 21:43:53 10° NE visible
05 Aug -0.3 23:15:57 10° NW 23:17:56 15° N 23:19:53 10° NNE visible
06 Aug 0.0 00:53:10 10° NNW 00:54:01 13° NNW 00:54:01 13° NNW visible
06 Aug -0.5 22:22:17 10° WNW 22:24:35 18° NNW 22:26:53 10° NNE visible
07 Aug -0.4 00:00:07 10° NNW 00:01:58 14° N 00:02:42 13° NNE visible
07 Aug -0.9 21:28:36 10° WNW 21:31:18 23° NNW 21:33:58 10° NE visible
07 Aug -0.4 23:06:50 10° NNW 23:08:35 14° N 23:10:21 10° NNE visible
08 Aug 0.0 00:43:17 10° NW 00:43:56 14° NNW 00:43:56 14° NNW visible
08 Aug -0.4 22:13:18 10° NW 22:15:12 14° N 22:17:06 10° NNE visible
08 Aug -0.7 23:50:20 10° NNW 23:52:36 17° NNE 23:52:36 17° NNE visible
09 Aug -0.5 22:57:17 10° NNW 22:59:13 15° N 23:01:09 10° NE visible
10 Aug 0.0 00:33:19 10° NW 00:33:49 13° NW 00:33:49 13° NW visible
10 Aug -0.5 22:04:02 10° NNW 22:05:48 14° N 22:07:34 10° NE visible
10 Aug -1.0 23:40:22 10° NW 23:42:29 22° N 23:42:29 22° N visible
11 Aug -1.0 22:47:24 10° NNW 22:49:44 18° NNE 22:51:09 14° NE visible
12 Aug 0.0 00:23:22 10° NW 00:23:43 13° NW 00:23:43 13° NW visible
12 Aug -0.7 21:54:21 10° NNW 21:56:20 15° N 21:58:21 10° NE visible
12 Aug -1.5 23:30:20 10° NW 23:32:24 30° NNW 23:32:24 30° NNW visible
13 Aug -1.7 22:37:20 10° NW 22:40:09 26° NNE 22:41:06 22° NE visible
14 Aug 0.0 00:13:33 10° WNW 00:13:41 11° WNW 00:13:41 11° WNW visible
14 Aug -1.1 21:44:21 10° NNW 21:46:47 19° NNE 21:49:15 10° ENE visible
14 Aug -1.8 23:20:20 10° NW 23:22:24 36° NW 23:22:24 36° NW visible
